TimeEST,TemperatureF,Dew PointF,Humidity,Sea Level PressureIn,VisibilityMPH,Wind Direction,Wind SpeedMPH,Gust SpeedMPH,PrecipitationIn,Events,Conditions,WindDirDegrees,DateUTC
12:21 AM,30.9,25.0,79,29.98,1.8,West,8.1,-,0.00,Snow,Light Snow,260,2013-11-08 05:21:00
12:32 AM,30.0,26.1,85,29.98,0.8,WSW,5.8,-,0.00,Snow,Light Snow,250,2013-11-08 05:32:00
12:37 AM,30.0,27.0,88,29.98,1.8,WSW,5.8,-,0.00,Snow,Light Snow,240,2013-11-08 05:37:00
12:40 AM,30.0,27.0,88,29.98,3.0,Variable,4.6,-,0.00,Snow,Light Snow,0,2013-11-08 05:40:00
12:50 AM,30.2,26.6,86,29.97,1.8,Variable,4.6,-,0.00,Snow,Light Snow,0,2013-11-08 05:50:00
12:51 AM,30.0,27.0,88,30.02,1.8,West,5.8,-,0.00,Snow,Light Snow,270,2013-11-08 05:51:00
1:04 AM,30.0,27.0,88,29.97,1.2,West,3.5,-,0.00,Snow,Light Snow,270,2013-11-08 06:04:00
1:16 AM,30.0,27.0,88,29.97,3.0,West,3.5,-,0.00,Snow,Light Snow,280,2013-11-08 06:16:00
1:49 AM,30.2,26.6,86,29.97,2.0,West,3.5,-,0.01,Snow,Light Snow,270,2013-11-08 06:49:00
1:53 AM,30.9,27.0,85,30.02,2.5,West,4.6,-,0.01,Snow,Light Snow,280,2013-11-08 06:53:00
2:07 AM,30.9,27.0,85,29.96,1.5,Variable,3.5,-,0.00,Snow,Light Snow,0,2013-11-08 07:07:00
2:41 AM,30.9,28.0,89,29.96,3.0,Calm,Calm,-,0.02,Snow,Light Snow,0,2013-11-08 07:41:00
2:53 AM,30.9,28.0,89,30.01,1.8,Variable,4.6,-,0.02,Snow,Light Snow,0,2013-11-08 07:53:00
3:28 AM,30.9,28.0,89,29.97,3.0,WNW,5.8,-,0.01,Snow,Light Snow,300,2013-11-08 08:28:00
3:36 AM,30.9,28.0,89,29.96,4.0,West,5.8,-,0.01,Snow,Light Snow,270,2013-11-08 08:36:00
3:53 AM,30.9,27.0,85,30.02,10.0,West,8.1,-,0.01,,Overcast,280,2013-11-08 08:53:00
4:44 AM,30.9,27.0,85,29.98,5.0,West,6.9,-,0.00,Snow,Light Snow,270,2013-11-08 09:44:00
4:53 AM,30.9,27.0,85,30.04,5.0,West,9.2,-,0.00,Snow,Light Snow,280,2013-11-08 09:53:00
5:03 AM,30.9,27.0,85,29.98,9.0,West,10.4,-,0.00,,Overcast,280,2013-11-08 10:03:00
5:13 AM,32.0,27.0,82,29.98,9.0,WNW,8.1,-,0.00,,Overcast,290,2013-11-08 10:13:00
5:53 AM,30.9,27.0,85,30.04,10.0,West,8.1,-,0.00,,Overcast,280,2013-11-08 10:53:00
6:03 AM,30.9,27.0,85,29.99,5.0,West,8.1,-,0.00,Snow,Light Snow,280,2013-11-08 11:03:00
6:06 AM,30.9,27.0,85,30.00,2.5,West,9.2,-,0.00,Snow,Light Snow,280,2013-11-08 11:06:00
6:11 AM,30.9,27.0,85,30.00,0.8,WNW,9.2,-,0.01,Snow,Light Snow,290,2013-11-08 11:11:00
6:20 AM,30.9,27.0,85,30.00,0.5,West,10.4,-,0.02,Fog-Snow,Light Snow,270,2013-11-08 11:20:00
6:26 AM,30.9,27.0,85,30.01,2.0,West,9.2,-,0.02,Snow,Light Snow,280,2013-11-08 11:26:00
6:39 AM,30.9,27.0,85,30.01,2.0,West,12.7,17.3,0.02,Snow,Light Snow,270,2013-11-08 11:39:00
6:46 AM,30.9,27.0,85,30.01,3.0,West,12.7,-,0.02,Snow,Light Snow,270,2013-11-08 11:46:00
6:53 AM,30.9,27.0,85,30.07,4.0,West,9.2,-,0.02,Snow,Light Snow,280,2013-11-08 11:53:00
7:53 AM,30.9,26.1,82,30.10,9.0,West,11.5,-,0.00,,Overcast,280,2013-11-08 12:53:00
8:13 AM,32.0,26.1,79,30.06,10.0,West,9.2,-,0.00,,Overcast,280,2013-11-08 13:13:00
8:53 AM,32.0,27.0,82,30.13,10.0,West,8.1,19.6,0.00,,Overcast,280,2013-11-08 13:53:00
9:07 AM,32.0,27.0,82,30.07,10.0,West,9.2,-,N/A,,Overcast,280,2013-11-08 14:07:00
9:45 AM,33.1,27.0,78,30.08,8.0,WNW,9.2,-,0.00,Snow,Light Snow,300,2013-11-08 14:45:00
9:53 AM,33.1,27.0,78,30.14,9.0,WNW,13.8,-,0.00,,Overcast,300,2013-11-08 14:53:00
10:53 AM,35.1,26.1,70,30.16,10.0,West,12.7,-,N/A,,Overcast,280,2013-11-08 15:53:00
11:53 AM,34.0,27.0,75,30.17,8.0,NNW,10.4,-,0.00,Snow,Light Snow,330,2013-11-08 16:53:00
11:59 AM,33.1,27.0,78,30.11,1.8,NNW,12.7,-,0.01,Snow,Light Snow,330,2013-11-08 16:59:00
12:08 PM,34.0,28.0,79,30.11,3.0,WNW,10.4,-,0.01,Snow,Light Snow,290,2013-11-08 17:08:00
12:20 PM,37.0,26.1,65,30.10,10.0,WNW,17.3,23.0,0.02,,Mostly Cloudy,290,2013-11-08 17:20:00
12:53 PM,37.0,27.0,67,30.16,10.0,WNW,15.0,23.0,0.02,,Overcast,300,2013-11-08 17:53:00
1:12 PM,37.0,28.0,70,30.11,9.0,West,15.0,21.9,0.00,,Overcast,280,2013-11-08 18:12:00
1:53 PM,36.0,27.0,70,30.17,10.0,West,16.1,23.0,0.00,,Overcast,280,2013-11-08 18:53:00
2:53 PM,34.0,26.1,73,30.19,4.0,West,12.7,19.6,0.00,Snow,Light Snow,280,2013-11-08 19:53:00
2:57 PM,34.0,27.0,75,30.14,1.8,WNW,12.7,19.6,0.00,Snow,Light Snow,290,2013-11-08 19:57:00
3:06 PM,34.0,27.0,75,30.14,4.0,West,13.8,19.6,0.00,Snow,Light Snow,270,2013-11-08 20:06:00
3:24 PM,34.0,26.1,73,30.15,10.0,West,11.5,-,0.00,,Overcast,280,2013-11-08 20:24:00
3:53 PM,34.0,26.1,73,30.20,10.0,West,9.2,-,0.00,,Overcast,270,2013-11-08 20:53:00
4:53 PM,34.0,24.1,67,30.21,10.0,West,11.5,-,N/A,,Overcast,280,2013-11-08 21:53:00
5:53 PM,34.0,24.1,67,30.23,10.0,West,9.2,18.4,N/A,,Overcast,280,2013-11-08 22:53:00
6:53 PM,33.1,24.1,70,30.24,10.0,West,6.9,-,N/A,,Overcast,260,2013-11-08 23:53:00
7:53 PM,33.1,24.1,70,30.25,10.0,West,8.1,-,N/A,,Overcast,270,2013-11-09 00:53:00
8:53 PM,33.1,24.1,70,30.25,10.0,Variable,4.6,-,N/A,,Overcast,0,2013-11-09 01:53:00
9:53 PM,33.1,24.1,70,30.26,10.0,West,8.1,-,N/A,,Overcast,260,2013-11-09 02:53:00
10:53 PM,33.1,24.1,70,30.25,10.0,West,5.8,-,N/A,,Overcast,280,2013-11-09 03:53:00
11:53 PM,33.1,23.0,66,30.25,10.0,WSW,3.5,-,N/A,,Overcast,250,2013-11-09 04:53:00